CW5306 Weather Reports


Display with metric or nautical units.
time (UTC)temp
F
wind
direction
speed
MPH
gust
MPH
rain 1hr
in
rain 24hr
in
rain mn
in
humidity
%
barometer
mb
20260903045331 79 84 9.0 19.0 0.00 0.51 0.51 80 1014.6
20260903044831 79 127 8.0 19.0 0.00 0.51 0.51 79 1014.4
20260903044331 80 51 6.0 19.0 0.00 0.51 0.51 79 1014.7
20260903043831 80 94 7.0 17.0 0.00 0.51 0.51 78 1014.6
20260903043331 80 111 7.0 17.0 0.00 0.51 0.51 78 1014.6
20260903042831 80 106 4.0 17.0 0.00 0.51 0.51 78 1014.4
20260903042331 80 87 9.0 17.0 0.00 0.51 0.51 77 1014.2
20260903042108 80 105 9.0 17.0 0.00 0.51 0.51 77 1014.5
20260903041831 80 143 9.0 17.0 0.00 0.51 0.51 77 1014.4
20260903040832 80 114 9.0 20.0 0.00 0.51 0.51 78 1014.4
20260903040331 80 115 4.0 23.0 0.00 0.51 0.51 77 1014.3
20260903035830 80 105 6.0 23.0 0.00 0.51 0.51 77 1014.6
20260903035330 81 117 11.0 19.0 0.00 0.51 0.51 77 1014.4
20260903034830 81 105 9.0 19.0 0.00 0.51 0.51 76 1014.3
20260903034330 81 129 11.0 20.0 0.00 0.51 0.51 75 1014.1
20260903033832 81 44 8.0 21.0 0.00 0.51 0.51 75 1014.2
20260903033549 81 80 11.0 21.0 0.00 0.51 0.51 75 1013.8
20260903032818 81 90 12.0 19.0 0.00 0.51 0.51 76 1014.0
20260903032318 81 65 10.0 19.0 0.00 0.51 0.51 76 1014.1
20260903031818 81 65 7.0 19.0 0.00 0.51 0.51 77 1013.9
20260903031319 82 93 11.0 20.0 0.00 0.51 0.51 76 1014.1
20260903030819 82 86 11.0 20.0 0.00 0.51 0.51 75 1014.1
20260903030319 82 124 6.0 17.0 0.00 0.51 0.51 75 1014.1
20260903025819 82 92 4.0 17.0 0.00 0.51 0.51 73 1014.0
20260903025318 82 102 8.0 17.0 0.00 0.51 0.51 74 1013.9
20260903024818 82 110 10.0 19.0 0.00 0.51 0.51 73 1013.8
20260903024318 82 87 10.0 20.0 0.00 0.51 0.51 73 1014.0
20260903023818 83 117 11.0 20.0 0.00 0.51 0.51 73 1014.2
20260903023319 82 104 4.0 16.0 0.00 0.51 0.51 75 1014.0
20260903022819 82 90 7.0 20.0 0.00 0.51 0.51 75 1014.2
20260903022318 82 75 13.0 20.0 0.00 0.51 0.51 76 1014.1
20260903022050 83 91 12.0 17.0 0.00 0.51 0.51 75 1014.0
20260903021319 82 83 4.0 17.0 0.00 0.51 0.51 76 1014.1
20260903020819 82 119 9.0 19.0 0.00 0.51 0.51 76 1013.7
20260903020318 83 106 8.0 21.0 0.00 0.51 0.51 75 1014.1
20260903015818 83 76 9.0 21.0 0.00 0.51 0.51 75 1013.9
20260903015318 83 92 9.0 17.0 0.00 0.51 0.51 74 1014.2
20260903014819 83 115 9.0 15.0 0.00 0.51 0.51 74 1014.0
20260903014319 83 111 6.0 16.0 0.00 0.51 0.51 74 1014.0
20260903013819 83 90 11.0 19.0 0.00 0.51 0.51 74 1014.2
20260903013319 83 102 6.0 19.0 0.00 0.51 0.51 74 1013.9
20260903012818 83 71 9.0 17.0 0.00 0.51 0.51 73 1014.0
20260903012319 83 104 12.0 16.0 0.00 0.51 0.51 74 1013.7
20260903011818 84 111 5.0 20.0 0.00 0.51 0.51 72 1013.9
20260903011318 84 110 6.0 20.0 0.00 0.51 0.51 73 1013.8
20260903010820 84 105 9.0 19.0 0.00 0.51 0.51 73 1014.1
20260903010319 84 90 9.0 17.0 0.00 0.51 0.51 74 1014.1
20260903005818 84 64 7.0 20.0 0.00 0.51 0.51 73 1014.0
20260903005319 84 113 15.0 20.0 0.00 0.51 0.51 73 1014.1
20260903004818 84 103 11.0 20.0 0.00 0.51 0.51 73 1014.1
20260903004319 84 67 11.0 20.0 0.00 0.51 0.51 74 1014.0
20260903004050 84 101 13.0 19.0 0.00 0.51 0.51 74 1013.9
20260903003318 84 102 5.0 20.0 0.00 0.51 0.51 75 1013.9
20260903003049 83 87 11.0 20.0 0.00 0.51 0.51 74 1014.1
20260903002321 84 75 6.0 21.0 0.00 0.51 0.51 75 1014.0
20260903001819 84 77 13.0 21.0 0.00 0.51 0.51 75 1014.3
20260903001319 84 51 7.0 19.0 0.00 0.51 0.51 76 1014.1
20260903001049 83 103 7.0 21.0 0.00 0.51 0.51 76 1014.2
20260903000318 83 70 10.0 21.0 0.00 0.51 0.51 77 1014.3
20260902235817 83 81 10.0 21.0 0.00 0.51 0.51 77 1014.4
20260902235319 83 51 9.0 21.0 0.00 0.51 0.51 76 1014.6
20260902234817 83 78 12.0 21.0 0.00 0.51 0.51 76 1014.5
20260902234317 84 72 6.0 19.0 0.00 0.51 0.51 77 1014.5
20260902233817 84 132 7.0 19.0 0.00 0.51 0.51 76 1014.5
20260902233317 84 108 10.0 21.0 0.00 0.51 0.51 77 1014.8
20260902232817 84 80 15.0 21.0 0.00 0.51 0.51 75 1014.7
20260902232548 84 73 6.0 23.0 0.00 0.51 0.51 75 1014.8
20260902231817 84 114 8.0 23.0 0.00 0.51 0.51 75 1014.7
20260902231317 84 84 10.0 20.0 0.00 0.51 0.51 76 1014.9
20260902230817 84 83 6.0 21.0 0.00 0.51 0.51 77 1015.0
20260902230317 84 64 13.0 21.0 0.00 0.51 0.51 75 1014.9
20260902225816 83 88 9.0 17.0 0.00 0.51 0.51 77 1014.9
20260902225316 83 106 11.0 17.0 0.00 0.51 0.51 76 1014.7
20260902224816 84 69 15.0 19.0 0.00 0.51 0.51 77 1014.8
20260902224316 83 93 14.0 19.0 0.00 0.51 0.51 76 1015.1
20260902223817 83 79 11.0 19.0 0.00 0.51 0.51 76 1015.2
20260902223316 83 139 12.0 19.0 0.00 0.51 0.51 77 1015.1
20260902222816 84 119 5.0 23.0 0.00 0.51 0.51 77 1015.3
20260902222317 84 100 8.0 23.0 0.00 0.51 0.51 78 1015.2
20260902221817 84 75 6.0 19.0 0.00 0.51 0.51 79 1015.2
20260902221317 84 94 10.0 21.0 0.00 0.51 0.51 77 1015.4
20260902220819 84 92 8.0 20.0 0.00 0.51 0.51 78 1015.1
20260902220305 84 114 6.0 20.0 0.00 0.51 0.51 79 1015.3
20260902215804 83 91 15.0 17.0 0.00 0.51 0.51 79 1015.5
20260902215306 83 110 12.0 17.0 0.00 0.51 0.51 80 1015.3
20260902214805 83 89 10.0 20.0 0.00 0.51 0.51 80 1015.4
20260902214305 83 50 12.0 20.0 0.00 0.51 0.51 80 1015.1
20260902213804 83 122 12.0 19.0 0.00 0.51 0.51 80 1015.3
20260902213535 83 88 12.0 16.0 0.00 0.51 0.51 81 1015.3
20260902212805 83 66 6.0 19.0 0.00 0.51 0.51 82 1015.2
20260902212253 82 102 6.0 19.0 0.00 0.51 0.51 82 1015.2
20260902212023 82 93 13.0 19.0 0.00 0.51 0.51 83 1015.2
20260902211254 81 140 11.0 16.0 0.00 0.51 0.51 84 1015.2
20260902211023 81 64 8.0 15.0 0.00 0.51 0.51 85 1015.2
20260902210253 80 72 8.0 19.0 0.00 0.51 0.51 85 1015.3
20260902205752 80 117 10.0 19.0 0.00 0.51 0.51 86 1015.5
20260902205252 80 107 9.0 19.0 0.00 0.51 0.51 86 1015.3
20260902204740 80 113 5.0 14.0 0.01 0.51 0.51 87 1015.4
20260902204500 80 106 8.0 14.0 0.01 0.51 0.51 87 1015.7
20260902203728 80 89 9.0 13.0 0.01 0.51 0.51 87 1015.5
20260902203235 79 107 8.0 14.0 0.01 0.51 0.51 88 1015.6
20260902203229 79 148 4.0 15.0 0.01 0.51 0.51 88 1015.5
20260902202500 79 102 7.0 14.0 0.01 0.51 0.51 88 1015.8
20260902201730 78 104 6.0 16.0 0.01 0.51 0.51 89 1015.6
20260902201229 78 93 4.0 17.0 0.01 0.51 0.51 89 1015.6
20260902200729 77 64 7.0 19.0 0.01 0.51 0.51 89 1015.6
20260902200229 77 109 11.0 29.0 0.01 0.51 0.51 88 1015.6
20260902195728 77 105 11.0 29.0 0.01 0.51 0.51 89 1015.7
20260902195229 77 63 11.0 24.0 0.00 0.51 0.50 89 1015.9
20260902194729 77 115 6.0 20.0 0.00 0.50 0.50 90 1015.7
20260902194229 78 69 9.0 16.0 0.00 0.50 0.50 91 1015.6
20260902193729 78 98 3.0 16.0 0.00 0.50 0.50 91 1015.8
20260902193228 77 100 4.0 19.0 0.01 0.50 0.50 91 1015.8
20260902193001 77 95 10.0 23.0 0.02 0.50 0.50 91 1015.6
20260902192229 77 115 10.0 23.0 0.03 0.50 0.50 92 1015.7
20260902191729 76 67 9.0 23.0 0.07 0.50 0.50 92 1015.8
20260902191228 76 35 10.0 19.0 0.11 0.50 0.50 92 1015.6
20260902190729 76 44 8.0 20.0 0.15 0.50 0.50 92 1015.6
20260902190228 76 58 11.0 21.0 0.19 0.50 0.50 92 1015.8
20260902185728 76 62 11.0 24.0 0.26 0.50 0.50 92 1015.6
20260902185229 75 114 8.0 24.0 0.35 0.50 0.50 92 1015.4
20260902184730 75 87 13.0 20.0 0.42 0.50 0.50 92 1015.5
20260902184229 75 90 14.0 21.0 0.43 0.50 0.50 93 1015.6
20260902183729 75 77 10.0 25.0 0.44 0.50 0.50 93 1015.8
20260902183229 75 73 11.0 28.0 0.44 0.50 0.49 93 1015.6
20260902182728 75 59 11.0 28.0 0.44 0.49 0.48 93 1015.5
20260902182228 76 50 14.0 21.0 0.42 0.47 0.48 93 1015.7
20260902181728 76 87 8.0 19.0 0.39 0.44 0.44 93 1015.5
20260902181229 76 70 5.0 19.0 0.34 0.39 0.39 92 1015.9
20260902180729 76 55 6.0 33.0 0.30 0.35 0.35 92 1015.5
20260902180231 76 135 8.0 33.0 0.26 0.31 0.31 92 1015.6
20260902175737 76 84 11.0 17.0 0.10 0.15 0.15 92 1015.4
20260902175730 76 116 7.0 20.0 0.20 0.25 0.24 92 1015.6
20260902175001 77 91 12.0 17.0 0.03 0.08 0.09 91 1015.3
20260902174229 77 75 3.0 16.0 0.02 0.07 0.07 91 1015.1
20260902173729 77 84 6.0 20.0 0.01 0.06 0.06 91 1015.2
20260902173500 77 113 7.0 20.0 0.00 0.06 0.05 91 1015.4
20260902173000 77 71 6.0 17.0 0.00 0.05 0.05 91 1015.2
20260902172501 77 77 13.0 19.0 0.00 0.05 0.05 91 1015.1
20260902171731 77 119 8.0 19.0 0.00 0.05 0.05 91 1015.3
20260902171229 77 85 5.0 24.0 0.00 0.05 0.05 91 1015.1
20260902171000 77 98 11.0 24.0 0.00 0.05 0.05 91 1014.8
20260902170228 77 103 9.0 19.0 0.00 0.05 0.05 91 1014.9
20260902165729 77 107 8.0 20.0 0.00 0.05 0.05 91 1015.0
20260902165229 77 78 9.0 20.0 0.00 0.05 0.05 91 1014.9
20260902164959 77 98 13.0 17.0 0.00 0.05 0.05 91 1014.9
20260902164229 77 110 11.0 19.0 0.00 0.05 0.05 91 1014.5
20260902163729 77 70 11.0 23.0 0.00 0.05 0.05 91 1014.7
20260902163500 77 87 6.0 23.0 0.01 0.05 0.05 91 1014.6
20260902162729 77 96 10.0 23.0 0.01 0.05 0.05 91 1014.6
20260902162228 77 57 10.0 24.0 0.02 0.05 0.05 91 1014.6
20260902161729 77 56 6.0 24.0 0.03 0.05 0.05 91 1014.5
20260902161230 76 76 11.0 21.0 0.03 0.05 0.05 92 1014.6
20260902161000 76 73 12.0 20.0 0.03 0.05 0.05 92 1014.5
20260902160459 76 58 10.0 17.0 0.03 0.05 0.05 92 1014.5
20260902160000 76 44 9.0 17.0 0.03 0.05 0.05 92 1014.3
20260902155229 76 77 5.0 20.0 0.03 0.05 0.05 92 1014.4
20260902154735 76 112 10.0 20.0 0.03 0.05 0.05 92 1014.5
20260902154729 76 113 8.0 20.0 0.03 0.05 0.05 92 1014.2
20260902153734 76 104 4.0 21.0 0.04 0.04 0.04 92 1014.3
20260902153728 76 72 10.0 21.0 0.03 0.05 0.05 92 1014.4
20260902152730 76 47 14.0 26.0 0.03 0.04 0.04 92 1014.0
20260902152230 76 99 11.0 26.0 0.02 0.02 0.02 91 1014.2
20260902152003 76 60 15.0 23.0 0.01 0.02 0.02 91 1014.0
20260902151229 76 77 8.0 19.0 0.01 0.02 0.02 91 1013.8
20260902150729 76 60 8.0 19.0 0.02 0.02 0.02 92 1013.9
20260902150500 76 77 11.0 16.0 0.02 0.02 0.02 92 1013.6
20260902145732 76 98 6.0 16.0 0.02 0.02 0.02 91 1014.0
20260902145500 76 81 10.0 24.0 0.02 0.02 0.02 91 1014.1
20260902144729 76 84 9.0 24.0 0.02 0.02 0.02 91 1014.0
20260902144459 76 55 11.0 24.0 0.02 0.02 0.02 91 1014.0
20260902144336 76 128 11.0 20.0 0.02 0.02 0.02 91 1013.8
20260902143500 76 113 4.0 20.0 0.00 0.01 0.00 91 1014.0
20260902142729 76 58 8.0 24.0 0.00 0.01 0.00 91 1014.0
20260902142240 76 133 9.0 20.0 0.00 0.01 0.00 90 1014.1
20260902142234 76 106 10.0 24.0 0.00 0.01 0.00 91 1014.1
20260902141818 76 133 9.0 20.0 0.00 0.01 0.00 90 1014.1
20260902141500 76 66 6.0 21.0 0.00 0.01 0.00 90 1013.9
20260902140732 76 62 8.0 28.0 0.00 0.00 0.00 89 1014.1
20260902140230 77 99 14.0 28.0 0.00 0.00 0.00 88 1014.1
20260902135729 77 58 11.0 24.0 0.00 0.00 0.00 88 1014.2
20260902135229 78 61 9.0 24.0 0.00 0.00 0.00 87 1014.3
20260902134729 78 101 7.0 19.0 0.00 0.00 0.00 87 1014.2
20260902134459 78 26 5.0 19.0 0.00 0.00 0.00 86 1014.0
20260902133959 78 128 11.0 23.0 0.00 0.00 0.00 87 1014.0
20260902133500 78 82 10.0 23.0 0.00 0.00 0.00 87 1014.0
20260902132729 78 46 13.0 20.0 0.00 0.00 0.00 87 1013.9
20260902132228 78 56 10.0 19.0 0.00 0.00 0.00 87 1014.0
20260902131948 78 58 8.0 19.0 0.00 0.00 0.00 87 1013.9
20260902131217 78 79 6.0 16.0 0.00 0.00 0.00 87 1014.0
20260902130717 78 83 5.0 16.0 0.00 0.00 0.00 87 1014.0
20260902130217 78 90 8.0 20.0 0.00 0.00 0.00 87 1014.1
20260902125948 78 73 12.0 20.0 0.00 0.00 0.00 87 1014.2
20260902125219 78 78 11.0 21.0 0.00 0.00 0.00 86 1014.1
20260902124718 78 73 4.0 21.0 0.00 0.00 0.00 86 1014.2
20260902124217 78 85 11.0 14.0 0.00 0.00 0.00 86 1014.3
20260902123705 78 30 4.0 17.0 0.00 0.00 0.00 86 1014.5
20260902123204 78 103 8.0 17.0 0.00 0.00 0.00 86 1014.4
20260902122705 78 97 11.0 17.0 0.00 0.00 0.00 87 1014.3
20260902122204 78 30 6.0 15.0 0.00 0.00 0.00 87 1014.4
20260902121704 78 47 7.0 16.0 0.00 0.00 0.00 87 1014.5
20260902121205 78 97 9.0 17.0 0.00 0.00 0.00 87 1014.7
20260902120936 78 79 9.0 20.0 0.00 0.00 0.00 87 1014.6
20260902120205 78 95 8.0 20.0 0.00 0.00 0.00 86 1014.5
20260902115705 78 73 8.0 21.0 0.00 0.00 0.00 87 1014.7
20260902115437 78 73 6.0 21.0 0.00 0.00 0.00 87 1014.5
20260902114937 78 69 13.0 19.0 0.00 0.00 0.00 87 1014.7
20260902114204 77 79 1.0 16.0 0.00 0.00 0.00 87 1014.7
20260902113704 77 89 11.0 16.0 0.00 0.00 0.00 88 1014.6
20260902113205 77 70 7.0 15.0 0.00 0.00 0.00 88 1014.9
20260902112704 77 84 9.0 17.0 0.00 0.00 0.00 88 1014.9
20260902112435 76 109 9.0 21.0 0.00 0.00 0.00 87 1014.7
20260902111704 77 119 13.0 21.0 0.00 0.00 0.00 87 1014.9
20260902111205 77 88 7.0 25.0 0.00 0.00 0.00 86 1015.1
20260902110705 78 95 8.0 25.0 0.00 0.00 0.00 85 1015.1
20260902110204 79 94 10.0 17.0 0.00 0.00 0.00 85 1015.0
20260902105705 79 76 6.0 17.0 0.00 0.00 0.00 85 1015.1
20260902105204 78 58 10.0 17.0 0.00 0.00 0.00 84 1015.1
20260902104936 78 94 12.0 17.0 0.00 0.00 0.00 83 1015.2
20260902104205 78 128 7.0 17.0 0.00 0.00 0.00 83 1015.1
20260902103704 78 85 8.0 21.0 0.00 0.00 0.00 84 1015.0
20260902103204 78 69 9.0 21.0 0.00 0.00 0.00 83 1015.4
20260902102704 78 64 8.0 17.0 0.00 0.00 0.00 84 1015.2
20260902102204 78 93 5.0 15.0 0.00 0.00 0.00 84 1015.4
20260902101936 78 96 6.0 19.0 0.00 0.00 0.00 85 1015.3
20260902101205 78 72 8.0 19.0 0.00 0.00 0.00 84 1015.3
20260902100704 78 87 9.0 17.0 0.00 0.00 0.00 84 1015.2
20260902100436 78 80 4.0 16.0 0.00 0.00 0.00 84 1015.1
20260902095705 78 82 6.0 17.0 0.00 0.00 0.00 84 1015.5
20260902095205 78 119 5.0 24.0 0.00 0.00 0.00 84 1015.2
20260902094653 78 101 10.0 24.0 0.00 0.00 0.00 83 1015.4
20260902094152 78 77 6.0 16.0 0.00 0.00 0.00 84 1015.2
20260902093652 78 91 9.0 16.0 0.00 0.00 0.00 83 1015.3
20260902093153 78 105 10.0 17.0 0.00 0.00 0.00 83 1015.6
20260902092653 78 87 8.0 17.0 0.00 0.00 0.00 83 1015.7
20260902092152 78 101 6.0 17.0 0.00 0.00 0.00 82 1015.6
20260902091654 78 101 5.0 15.0 0.00 0.00 0.00 83 1015.6
20260902091153 78 93 6.0 16.0 0.00 0.00 0.00 83 1015.8
20260902090653 78 125 10.0 16.0 0.00 0.00 0.00 83 1015.7
20260902090424 78 75 4.0 17.0 0.00 0.00 0.00 83 1015.9
20260902085653 78 109 6.0 20.0 0.00 0.00 0.00 83 1015.9
20260902085155 78 94 8.0 21.0 0.00 0.00 0.00 83 1015.8
20260902084653 78 79 10.0 21.0 0.00 0.00 0.00 82 1015.8
20260902084152 78 106 12.0 19.0 0.00 0.00 0.00 83 1016.0
20260902083652 78 118 11.0 16.0 0.00 0.00 0.00 83 1015.9
20260902083152 78 88 9.0 16.0 0.00 0.00 0.00 83 1015.7
20260902082655 78 54 4.0 17.0 0.00 0.00 0.00 84 1015.7
20260902082153 78 115 9.0 17.0 0.00 0.00 0.00 84 1015.8
20260902081653 78 59 8.0 21.0 0.00 0.00 0.00 83 1016.0
20260902081424 78 101 13.0 21.0 0.00 0.00 0.00 84 1015.9
20260902081301 78 87 7.0 19.0 0.00 0.00 0.00 84 1016.2
20260902080425 78 102 10.0 19.0 0.00 0.00 0.00 84 1015.9
20260902075653 78 52 7.0 19.0 0.00 0.00 0.00 85 1016.0
20260902075152 78 82 7.0 19.0 0.00 0.00 0.00 85 1016.2
20260902074651 78 115 9.0 16.0 0.00 0.00 0.00 86 1016.1
20260902074157 78 69 10.0 19.0 0.00 0.00 0.00 85 1016.2
20260902074151 78 77 9.0 19.0 0.00 0.00 0.00 85 1015.9
20260902073149 78 77 11.0 19.0 0.00 0.00 0.00 85 1016.2
20260902072648 78 105 9.0 16.0 0.00 0.00 0.00 84 1015.8
20260902072417 78 65 9.0 19.0 0.00 0.00 0.00 84 1015.8
20260902071645 78 51 8.0 19.0 0.00 0.00 0.00 84 1016.0
20260902071146 78 84 5.0 17.0 0.00 0.00 0.00 84 1015.9
20260902070646 78 95 8.0 16.0 0.00 0.00 0.00 84 1016.0
20260902070146 78 92 10.0 19.0 0.00 0.00 0.00 85 1016.0
20260902065645 78 114 5.0 20.0 0.00 0.00 0.00 84 1015.4
20260902065417 78 75 14.0 20.0 0.00 0.00 0.00 85 1015.7
20260902064645 78 94 5.0 17.0 0.00 0.00 0.00 86 1015.7
20260902064151 78 84 6.0 17.0 0.00 0.00 0.00 85 1015.6
20260902064145 78 116 4.0 16.0 0.00 0.00 0.00 85 1015.6
20260902063146 78 61 10.0 17.0 0.00 0.00 0.00 85 1015.5
20260902062645 78 87 7.0 15.0 0.00 0.00 0.00 85 1015.6
20260902062145 78 94 8.0 17.0 0.00 0.00 0.00 83 1015.5
20260902061915 78 66 9.0 17.0 0.00 0.00 0.00 84 1015.6
20260902061404 78 125 12.0 19.0 0.00 0.00 0.00 84 1015.6
20260902060903 78 82 6.0 19.0 0.00 0.00 0.00 83 1015.5
20260902060138 78 89 8.0 16.0 0.00 0.00 0.00 83 1015.4
20260902060132 79 87 10.0 16.0 0.00 0.00 0.00 84 1015.4
20260902055402 78 90 9.0 21.0 0.00 0.00 0.00 83 1015.4
20260902054632 78 77 11.0 21.0 0.00 0.00 0.00 83 1015.3
20260902054132 78 87 8.0 16.0 0.00 0.00 0.00 83 1015.4
20260902053902 78 65 7.0 17.0 0.00 0.00 0.00 85 1015.4
20260902053402 78 68 4.0 17.0 0.00 0.00 0.00 86 1015.2
20260902052631 78 70 5.0 20.0 0.00 0.00 0.00 86 1015.3
20260902052130 77 61 14.0 20.0 0.00 0.00 0.00 85 1015.3
20260902051901 77 62 9.0 19.0 0.00 0.00 0.00 85 1015.3
20260902051401 77 77 8.0 20.0 0.00 0.00 0.00 85 1015.1
20260902050629 76 71 6.0 20.0 0.00 0.00 0.00 85 1015.1
20260902050358 77 114 9.0 16.0 0.00 0.00 0.00 86 1015.2